Location: Newark
(54.0500°N, 12.8333°E)
Time: 17:11:56
(UTC+00:00)

Envisat - Visible Passes

Search period start: 12 December 2019 00:00
Search period end: 22 December 2019 00:00
Orbit: 764 x 766 km, 98.1° (Epoch: 12 December)

Date Brightness Start Highest point End Pass type
(mag) Time Alt. Az. Time Alt. Az. Time Alt. Az.
12 Dec 5.3 05:05:24 10° NE 05:09:38 26° E 05:13:49 10° SSE visible
12 Dec 3.0 16:26:14 10° SSE 16:31:14 63° ENE 16:36:17 10° N visible
12 Dec 5.2 18:06:35 10° SW 18:10:42 24° W 18:14:50 10° NW visible
13 Dec 6.1 04:29:49 10° NE 04:32:21 14° E 04:34:52 10° ESE visible
13 Dec 3.3 06:07:10 10° NNE 06:12:17 75° ESE 06:17:22 10° S visible
13 Dec 3.6 15:50:05 10° SE 15:54:39 35° ENE 15:59:15 10° N visible
13 Dec 4.1 17:28:44 10° S 17:33:36 45° W 17:38:30 10° NNW visible
14 Dec 4.5 05:30:33 10° NNE 05:35:21 39° E 05:40:07 10° SSE visible
14 Dec 3.0 16:51:37 10° SSE 16:56:43 85° WSW 17:01:50 10° NNW visible
14 Dec 5.8 18:33:29 10° WSW 18:36:32 16° W 18:39:35 10° NW visible
15 Dec 5.6 04:54:20 10° NE 04:58:13 21° E 05:02:04 10° SE visible
15 Dec 3.0 06:32:41 10° NNE 06:37:47 72° WNW 06:42:50 10° SSW visible
15 Dec 3.1 16:15:05 10° SE 16:20:00 52° ENE 16:24:57 10° N visible
15 Dec 4.9 17:54:54 10° SSW 17:59:18 29° W 18:03:44 10° NNW visible
16 Dec 6.2 04:19:27 10° ENE 04:20:52 11° E 04:22:18 10° E visible
16 Dec 3.6 05:55:54 10° NNE 06:00:59 62° ESE 06:06:01 10° S visible
16 Dec 3.8 15:39:05 10° ESE 15:43:28 30° ENE 15:47:51 10° N visible
16 Dec 3.7 17:17:17 10° S 17:22:16 55° W 17:27:17 10° NNW visible
17 Dec 4.9 05:19:23 10° NNE 05:23:59 33° E 05:28:33 10° SSE visible
17 Dec 2.9 16:40:21 10° SSE 16:45:26 81° ENE 16:50:33 10° NNW visible
17 Dec 5.6 18:21:31 10° SW 18:25:05 19° W 18:28:41 10° NW visible
18 Dec 5.8 04:43:21 10° NE 04:46:48 18° E 04:50:12 10° SE visible
18 Dec 3.0 06:21:23 10° NNE 06:26:31 85° WNW 06:31:36 10° SSW visible
18 Dec 3.3 16:03:58 10° SE 16:08:46 44° ENE 16:13:35 10° N visible
18 Dec 4.6 17:43:17 10° SSW 17:47:55 35° W 17:52:36 10° NNW visible
19 Dec 4.0 05:44:40 10° NNE 05:49:39 51° E 05:54:36 10° S visible
19 Dec 3.9 15:28:10 10° ESE 15:32:17 26° ENE 15:36:26 10° N visible
19 Dec 3.4 17:05:54 10° S 17:10:57 66° WSW 17:16:03 10° NNW visible
19 Dec 6.1 18:49:06 10° WSW 18:50:59 12° W 18:52:53 10° WNW visible
20 Dec 5.2 05:08:15 10° NNE 05:12:35 27° E 05:16:55 10° SSE visible
20 Dec 2.9 16:29:07 10° SSE 16:34:09 67° ENE 16:39:14 10° N visible
20 Dec 5.3 18:09:41 10° SW 18:13:40 23° W 18:17:41 10° NW visible
21 Dec 6.0 04:32:31 10° NE 04:35:21 15° E 04:38:09 10° ESE visible
21 Dec 3.2 06:10:05 10° NNE 06:15:13 80° ESE 06:20:19 10° SSW visible
21 Dec 3.5 15:52:54 10° SE 15:57:33 37° ENE 16:02:13 10° N visible
21 Dec 4.2 17:31:45 10° SSW 17:36:34 42° W 17:41:24 10° NNW visible
